Regional Weather Roundup
Issued by NWS

Home | Current Version | Previous Version | Graphics & Text | Print | Product List | Glossary On
Versions: 1 2 3 4 5 6 7 8 9 10 11 12 13 14 15 16 17 18 19 20 21 22 23 24 25 26 27 28 29 30 31 32 33 34 35 36 37 38 39 40 41 42 43 44 45 46 47 48 49 50
000
ASUS43 KTOP 241808
RWRKS

WEATHER ROUNDUP FOR KANSAS
NATIONAL WEATHER SERVICE GOODLAND KS
100 PM CDT TUE MAY 24 2016

NOTE:  "FAIR" INDICATES FEW OR NO CLOUDS BELOW 12,000 FEET WITH NO
SIGNIFICANT WEATHER AND/OR OBSTRUCTIONS TO VISIBILITY.

KSZ001>006-013>018-027>032-041>047-241900-
NORTHWEST KANSAS

CITY           SKY/WX    TMP DP  RH WIND       PRES   REMARKS
GOODLAND       PTSUNNY   70  57  63 SE18G28   29.92F
6HR MIN TEMP:  52; 6HR MAX TEMP:  71;

HAYS           CLOUDY    73  54  49 SE23G30   29.91F
HILL CITY      CLOUDY    71  57  61 SE18G25   29.92F
6HR MIN TEMP:  58; 6HR MAX TEMP:  71; 6HR PCP:  0.30;

RUSSELL        PTSUNNY   74  58  57 SE24G32   29.89F
6HR MIN TEMP:  57; 6HR MAX TEMP:  75; 6HR PCP:  0.02;

$$

KSZ061>065-074>080-084>089-241900-
SOUTHWEST KANSAS

CITY           SKY/WX    TMP DP  RH WIND       PRES   REMARKS
DODGE CITY     PTSUNNY   76  66  71 SE20G26   29.88F
6HR MIN TEMP:  64; 6HR MAX TEMP:  76; 6HR PCP:  0.01;

ELKHART          N/A     78  56  46 W7          N/A
GARDEN CITY    MOSUNNY   79  67  66 SE22G30   29.85F
6HR MIN TEMP:  64; 6HR MAX TEMP:  79;

GREAT BEND     CLOUDY    77  55  47 SE22G28   29.90S
LIBERAL        SUNNY     84  61  45 S10       29.86S
PRATT          MOSUNNY   70  62  75 SE14      29.90F
6HR MIN TEMP:  59; 6HR MAX TEMP:  70; 6HR PCP:  0.10;

$$

KSZ066>073-081>083-090>101-241900-
SOUTHEAST KANSAS

CITY           SKY/WX    TMP DP  RH WIND       PRES   REMARKS
CHANUTE        CLOUDY    73  64  73 E9        29.96S
6HR MIN TEMP:  65; 6HR MAX TEMP:  73; 6HR PCP:  0.05;

COFFEYVILLE    CLOUDY    77  70  79 NE12      29.94F
6HR MIN TEMP:  71; 6HR MAX TEMP:  80;

HUTCHINSON     CLOUDY    78  59  51 E16G23    29.90F
6HR MIN TEMP:  63; 6HR MAX TEMP:  78;

MEDICINE LODGE   N/A     76  66  71 E12G22    29.88F
NEWTON         SUNNY     75  57  53 E16         N/A
PARSONS        CLOUDY    74  68  81 VRB7      29.97F
6HR MIN TEMP:  69; 6HR MAX TEMP:  74; 6HR PCP: TRACE;

WICHITA INTL   MOSUNNY   78  67  68 E10       29.90F
6HR MIN TEMP:  63; 6HR MAX TEMP:  78; 6HR PCP:  0.25;

WICHITA JABRA  SUNNY     76  66  71 E14G21    29.91F
6HR MIN TEMP:  62; 6HR MAX TEMP:  76; 6HR PCP:  0.28;

WICHITA MCCONL PTSUNNY   77  68  73 SE8       29.91F
WINFIELD       MOSUNNY   82  71  69 MISG      29.91F
6HR MIN TEMP:  69; 6HR MAX TEMP:  82;

$$

KSZ007>012-019>026-033>040-048>060-102>105-241900-
NORTHEAST KANSAS

CITY           SKY/WX    TMP DP  RH WIND       PRES   REMARKS
CONCORDIA      SUNNY     75  59  57 S18       29.88F
6HR MIN TEMP:  59; 6HR MAX TEMP:  75; 6HR PCP:  0.06;

EMPORIA        CLOUDY    74  61  63 E14       29.96R
6HR MIN TEMP:  61; 6HR MAX TEMP:  74; 6HR PCP:  0.21;

LAWRENCE       MOSUNNY   73  63  70 S10       29.94F
6HR MIN TEMP:  62; 6HR MAX TEMP:  74; 6HR PCP:  0.03;

MANHATTAN      SUNNY     79  76  90 SE10      29.87R
6HR MIN TEMP:  62; 6HR MAX TEMP:  79; 6HR PCP:  0.38;

MARYSVILLE     CLOUDY    75  63  64 NW6       29.88R
OLATHE IND     CLOUDY    73  63  70 E5        29.99R
6HR MIN TEMP:  62; 6HR MAX TEMP:  73; 6HR PCP:  0.07;

OLATHE EXE     CLOUDY    71  61  70 SE5       29.98R
6HR MIN TEMP:  61; 6HR MAX TEMP:  72; 6HR PCP:  0.01;

SALINA         CLOUDY    80  60  50 SE20      29.88F
6HR MIN TEMP:  62; 6HR MAX TEMP:  81; 6HR PCP:  0.38;

TOPEKA BILLARD MOSUNNY   75  62  64 SE18      29.88F
6HR MIN TEMP:  61; 6HR MAX TEMP:  77; 6HR PCP:  0.07;

TOPEKA FORBES  SUNNY     75  64  68 SE14      29.91F
6HR MIN TEMP:  61; 6HR MAX TEMP:  75; 6HR PCP:  0.07;

$$




USA.gov is the U.S. government's official web portal to all federal, state and local government web resources and services.